Temp_Advection
nan nan nan nan nan nan nan nan nan nan nan nan nan nan nan nan nan nan nan nan nan nan
nan -0 -0 -1 -1 -2 -2 -2 -3 -2 -1 -3 -1 0 -1 -1 -1 -0 -1 0 0 nan
nan -1 -1 -1 -1 -1 -2 -1 -1 -2 -2 -1 -3 -2 -1 -1 0 -1 -1 0 0 nan
nan -1 -2 -1 -1 -1 -2 -2 -1 -1 -1 -2 -1 -3 -2 1 -2 -3 -1 -0 0 nan
nan -1 -1 -1 -1 -1 -1 -2 -2 -1 -1 -1 -1 -1 -2 -1 -2 -4 -3 -0 -0 nan
nan -1 -1 -1 -1 -1 -2 -2 -1 -2 -1 -1 -2 -2 -1 -2 -3 -3 -3 -0 -0 nan
nan -0 -0 -1 -1 -1 -1 -2 -2 -2 -1 -1 -2 -2 -2 -2 -1 -3 -3 -0 -0 nan
nan -1 -0 -1 -1 -1 -1 -1 -2 -2 -1 -0 -1 -2 -2 -1 -1 -3 -2 -1 -1 nan
nan -1 -1 -1 -1 -1 -1 -1 -1 -2 -1 -1 -1 -2 -2 -0 -2 -4 -2 -1 -1 nan
nan -1 -1 -1 -1 -1 -1 -1 -2 -2 -1 -1 -2 -2 -1 -1 -2 -2 -3 -1 0 nan
nan -0 -0 -0 -1 -1 -0 -1 -2 -2 -1 -2 -2 -1 -1 -2 -2 -1 -2 -1 0 nan
nan -0 0 0 -0 -0 -0 -1 -1 -1 -1 -2 -2 -2 -1 -1 -1 -2 -2 -1 -0 nan
nan 1 0 -0 -0 0 -0 -0 -1 -1 -1 -1 -2 -2 -1 -1 -1 -2 -2 -1 0 nan
nan nan nan nan nan nan nan nan nan nan nan nan nan nan nan nan nan nan nan nan nan nan
Wind_Speed
36 37 37 36 38 38 37 37 36 35 35 36 39 34 36 34 35 40 41 42 38 38
40 40 40 40 38 39 40 38 37 37 38 39 38 40 38 34 34 43 42 42 40 37
38 39 41 41 42 40 39 40 39 39 39 39 40 42 44 36 35 46 45 44 39 37
39 38 38 39 40 41 41 38 40 40 41 41 40 41 46 46 42 39 48 46 45 40
40 40 40 40 40 39 41 40 38 40 40 41 40 40 40 55 59 38 50 49 44 42
42 42 42 41 41 40 40 40 38 39 40 41 39 41 41 41 56 34 49 48 46 44
45 44 44 43 42 41 39 39 39 38 40 40 39 39 41 38 45 45 39 41 42 40
46 44 43 43 41 40 40 38 37 38 38 39 39 39 40 39 39 41 40 42 42 41
46 45 43 43 41 40 40 38 37 37 38 39 39 38 38 39 33 42 38 40 42 41
47 46 45 44 44 42 41 39 39 38 37 39 39 37 35 37 34 38 36 31 35 41
47 47 47 46 45 43 41 41 39 37 36 37 38 36 33 34 29 33 34 34 32 33
49 50 49 49 47 43 41 40 38 35 35 38 39 33 31 31 26 33 32 31 31 32
49 49 50 46 42 39 37 37 33 34 35 36 36 29 31 29 22 28 27 28 27 27
49 50 45 42 39 36 35 34 34 34 34 32 30 29 28 24 23 26 26 26 27 27
Wind_Direction
314 311 308 304 301 298 298 296 295 287 275 265 270 255 253 258 265 255 252 249 244 244
310 308 306 304 301 299 296 294 290 288 285 276 263 268 256 252 261 258 249 246 241 238
307 304 303 302 300 298 294 290 290 288 286 282 275 261 264 249 251 255 249 242 239 238
309 306 304 301 299 299 295 290 285 284 286 284 278 271 263 260 269 255 247 242 238 238
310 310 308 304 301 298 294 291 285 281 281 282 279 277 264 262 264 271 242 239 235 235
312 310 307 304 302 300 296 290 286 281 278 279 279 276 270 255 261 269 235 235 234 236
311 309 307 305 302 300 296 291 287 280 278 278 278 275 273 260 247 257 248 225 230 231
310 308 305 302 300 298 295 291 286 281 277 277 277 276 272 262 249 248 246 227 228 233
310 309 305 303 301 297 294 291 286 278 275 277 276 274 269 266 251 243 252 231 234 237
311 306 304 302 299 295 293 291 284 278 275 275 276 274 267 262 239 240 256 222 226 226
308 303 302 299 295 294 292 287 284 279 275 278 277 273 267 255 233 242 248 225 224 229
309 304 303 298 296 294 290 286 282 279 279 280 278 271 263 242 228 240 227 225 227 230
313 309 302 300 297 293 287 284 284 283 280 278 275 269 254 228 229 235 224 225 231 235
319 311 308 304 299 294 288 286 283 281 279 277 272 260 238 217 235 225 223 229 231 233
Height
1511 1505 1501 1497 1493 1489 1486 1483 1482 1480 1478 1479 1481 1480 1481 1481 1481 1482 1483 1484 1486 1488
1502 1497 1492 1488 1484 1479 1475 1473 1471 1469 1467 1465 1466 1468 1469 1469 1470 1472 1473 1474 1476 1477
1494 1489 1484 1478 1473 1470 1466 1463 1460 1458 1456 1454 1452 1453 1456 1455 1457 1460 1461 1463 1465 1468
1485 1480 1476 1470 1465 1460 1455 1453 1450 1447 1444 1442 1441 1440 1440 1443 1445 1445 1448 1450 1454 1457
1475 1470 1465 1460 1455 1451 1445 1441 1439 1436 1433 1430 1429 1428 1428 1430 1432 1431 1433 1437 1441 1447
1465 1460 1454 1449 1444 1439 1434 1430 1427 1424 1421 1419 1417 1415 1417 1415 1416 1416 1417 1423 1427 1435
1454 1448 1442 1437 1432 1427 1423 1418 1415 1412 1409 1407 1405 1403 1404 1400 1407 1407 1407 1409 1417 1423
1443 1437 1431 1425 1421 1416 1411 1407 1404 1400 1397 1395 1394 1391 1391 1391 1394 1394 1395 1399 1405 1411
1432 1425 1419 1413 1408 1403 1399 1395 1392 1388 1385 1382 1380 1381 1380 1382 1382 1386 1387 1388 1392 1400
1420 1413 1407 1402 1396 1391 1387 1383 1379 1375 1373 1369 1368 1369 1369 1371 1371 1373 1373 1376 1382 1391
1410 1402 1396 1390 1384 1379 1375 1370 1366 1363 1361 1359 1355 1357 1357 1357 1358 1361 1363 1368 1374 1380
1399 1390 1383 1376 1371 1366 1361 1357 1354 1352 1349 1345 1341 1344 1344 1348 1350 1354 1356 1361 1367 1372
1386 1377 1370 1363 1357 1352 1349 1344 1344 1339 1337 1335 1331 1330 1332 1336 1338 1344 1349 1355 1358 1363
1374 1365 1356 1349 1344 1339 1336 1335 1333 1330 1325 1321 1321 1320 1322 1324 1330 1336 1340 1346 1353 1356